Change the Weather History Date:

Friday, October 7, 2011

  Actual Average Record
Temperature  
Mean Temperature 43 °F 43 °F  
Max Temperature 50 °F 49 °F 60 °F (1970)
Min Temperature 36 °F 37 °F 11 °F (1990)
Degree Days  
Heating Degree Days 22 22  
Month to date heating degree days 147 149  
Since 1 July heating degree days 1239 1247  
Cooling Degree Days 0    
Month to date cooling degree days 0  
Year to date cooling degree days 0  
Moisture  
Dew Point 37 °F    
Average Humidity 0    
Maximum Humidity 0    
Minimum Humidity 0    
Precipitation  
Precipitation 0.00 in 0.27 in 2.49 in (1990)
Month to date precipitation 1.34 1.96  
Year to date precipitation 56.21 56.10  
Snow  
Snow 0.00 in 0.00 in T in (1982)
Month to date snowfall 0.0 0.0  
Since 1 July snowfall 0.0 0.0  
Since 1 September snowfall 0.0 0.0  
Snow Depth 0.00 in    
Sea Level Pressure  
Sea Level Pressure 29.71 in    
Wind  
Wind Speed 4 mph (NW)    
Max Wind Speed 8 mph    
Max Gust Speed 10 mph    
Visibility 10 miles    
Events      
T = Trace of Precipitation, MM = Missing Value Source: NWS Daily Summary

Daily Weather History Graph

Daily Weather History Graph

Search for Another Location

Airport or City:

Trip Planner

Search our weather history database for the weather conditions in past years. The results will help you decide how hot, cold, wet, or windy it might be!

Date:

Astronomy

Oct. 07, 2011 Rise Set
Actual Time 8:26 AM AKDT 7:27 PM AKDT
Civil Twilight 7:47 AM AKDT 8:06 PM AKDT
Nautical Twilight 7:02 AM AKDT 8:51 PM AKDT
Astronomical Twilight 6:16 AM AKDT 9:37 PM AKDT
Moon 5:51 PM AKDT (10/7) 3:40 AM AKDT (10/7)
Length of Visible Light 12h 18m
Length of Day
11h 00m
Waxing Gibbous, 84% of the Moon is Illuminated
Oct 7
Waxing Gibbous
Oct 11
Full
Oct 19
Last Quarter
Oct 26
New
Nov 2
First Quarter

Hourly Weather History & Observations

Time (AKDT) Temp. Windchill Dew Point Humidity Pressure Visibility Wind Dir Wind Speed Gust Speed Precip Events Conditions
12:53 AM 44.1 °F - 36.0 °F 73% 29.60 in 10.0 mi Calm Calm - N/A   Scattered Clouds
1:53 AM 43.0 °F - 36.0 °F 76% 29.62 in 10.0 mi Calm Calm - N/A   Partly Cloudy
2:53 AM 39.0 °F 36.8 °F 35.1 °F 86% 29.62 in 10.0 mi West 3.5 mph - N/A   Partly Cloudy
3:53 AM 37.0 °F 33.3 °F 33.1 °F 86% 29.64 in 10.0 mi WNW 4.6 mph - N/A   Partly Cloudy
4:53 AM 39.0 °F 34.0 °F 35.1 °F 86% 29.66 in 10.0 mi NW 6.9 mph - N/A   Partly Cloudy
5:53 AM 37.0 °F 33.3 °F 35.1 °F 93% 29.66 in 10.0 mi West 4.6 mph - N/A   Partly Cloudy
6:53 AM 37.0 °F 32.4 °F 35.1 °F 93% 29.67 in 10.0 mi NW 5.8 mph - N/A   Scattered Clouds
7:53 AM 37.9 °F 35.5 °F 35.1 °F 89% 29.69 in 10.0 mi WNW 3.5 mph - N/A   Mostly Cloudy
8:53 AM 37.9 °F - 36.0 °F 93% 29.70 in 10.0 mi Calm Calm - N/A   Mostly Cloudy
9:53 AM 37.9 °F 34.4 °F 36.0 °F 93% 29.71 in 10.0 mi West 4.6 mph - N/A   Mostly Cloudy
10:53 AM 39.9 °F 36.7 °F 37.0 °F 89% 29.72 in 10.0 mi WNW 4.6 mph - N/A   Mostly Cloudy
11:53 AM 46.9 °F - 37.0 °F 68% 29.73 in 10.0 mi Calm Calm - N/A   Mostly Cloudy
12:53 PM 46.9 °F - 37.9 °F 71% 29.73 in 10.0 mi ENE 3.5 mph - N/A   Mostly Cloudy
1:53 PM 48.9 °F - 37.0 °F 64% 29.73 in 10.0 mi ENE 4.6 mph - N/A   Mostly Cloudy
2:53 PM 48.9 °F - 37.0 °F 64% 29.74 in 10.0 mi NE 8.1 mph - N/A   Mostly Cloudy
3:53 PM 48.0 °F - 37.0 °F 66% 29.74 in 10.0 mi ENE 8.1 mph - N/A   Mostly Cloudy
4:53 PM 48.0 °F - 39.0 °F 71% 29.75 in 10.0 mi ESE 6.9 mph - N/A   Mostly Cloudy
5:53 PM 46.9 °F - 37.9 °F 71% 29.75 in 10.0 mi East 3.5 mph - N/A   Mostly Cloudy
6:53 PM 45.0 °F - 37.9 °F 76% 29.75 in 10.0 mi Calm Calm - N/A   Mostly Cloudy
7:53 PM 43.0 °F - 37.9 °F 82% 29.76 in 10.0 mi Calm Calm - N/A   Mostly Cloudy
8:53 PM 41.0 °F 38.0 °F 36.0 °F 82% 29.76 in 10.0 mi West 4.6 mph - N/A   Scattered Clouds
9:53 PM 42.1 °F 40.2 °F 37.0 °F 82% 29.77 in 10.0 mi West 3.5 mph - N/A   Mostly Cloudy
10:53 PM 43.0 °F - 39.0 °F 86% 29.78 in 10.0 mi Calm Calm - N/A   Mostly Cloudy
11:53 PM 43.0 °F 41.3 °F 37.9 °F 82% 29.78 in 10.0 mi WSW 3.5 mph - N/A   Overcast